Showing default

KINEIS-1C, 60081

Orbit data source: Space-Track

KINEIS-1C, 60081 is a French payload satellite in SSO that was launched on Thu, 20 Jun 2024 UTC via an ELECTRON launch vehicle from the Rocket Lab Launch Complex (RLLC). Payloads include a variety of satellites, spacecraft, and rockets equipped with specific instruments for various scientific and technological missions. These include communications satellites like Starlink; space stations such as the ISS; scientific satellites like the Hubble; Earth observation satellites from companies like Planet Labs, Umbra, and HawkEye 360; GPS; miniature CubeSats for education and research; and military/defense satellites.

Loading next visibility...
KINEIS-1C details
Identifier
60081, 2024-114C
Orbit
SSO
Last TLE update13 hours ago
Origin
Flag of FRKINEIS (FR)
ManufacturerKINEIS
MissionOperational Commercial Communications
Bus & MotorCUBESAT 16U, Unknown motor
Mass28 kg wet, 28 kg dry
Launch date (UTC)
2024-06-20 (6 months ago)
Launch vehicle
ELECTRON
Launch site
Rocket Lab Launch Complex (RLLC)
Object type
Payload
Rocket body
Debris
Shape & HBRBox + 2 Pan + 1 Ant, 1.6 m
Radar Cross Section0.229 m², Medium (>0.1 m² and < 1m²)

Expand to show TLE details & history

TLE from 13 hours ago
0 KINEIS-1C
1 60081U 24114C   24356.09126196  .00001964  00000-0  27714-3 0  9995
2 60081  98.0209  11.0930 0002278 110.1721 249.9735 14.78349812 27062
Epoch: 2024-12-21T02:11Z
Definitive object data (Epoch: 2024-12-21T02:11:25.033Z)
Latitude-0°
Longitude-111.9087°
Altitude638.101 km
Speed7.539 km/s
True Right ascension00h 44m 22s
True Declination0° 00' 00"
Sunlit
Object was in daylight at TLE epoch
Visualization TLE readout
Latitude-45.81297°
Longitude-103.08793°
Altitude653.692 km
Speed7.529 km/s
Apparent Right ascension01h 40m 13s
Apparent Declination-42° 56' 31"
Sunlit
Object is in daylight
Visualization observer readout
Local Sidereal Time14:00:49
Azimuth129.757° SE
Elevation-85.095°
Doppler factor1
Orbital elements
Apogee altitude633.183 km
Perigee altitude629.99 km
Semi-major axis7,009.723 km
Eccentricity0.0002278
Inclination98.0209°
RAAN11.093°
Arg. of periapsis110.1721°
True anomaly249.94898°
Mean anomaly249.9735°
Eccentric anomaly249.96124°
Mean motion3.69821 °/min
BSTAR0.00027714
Orbital period97.34 mins
Loading maneuver chart data...
Loading historical data...
Loading historical data...
Loading historical data...
Loading historical data...
Loading historical data...
Loading historical data...
Loading historical data...

KINEIS-1C Visibility forecast

Observer location: undefined°, undefined

Span
Click to sort rows by Start time (UTC) header in descending order
Start Az.
Max El. time (UTC)
Max El. Az.
Max El.
End time (UTC)
End Az.
7 mins2024-12-22 01:03:36.647Z155.814° SSE2024-12-22 01:06:36.647Z108.759° ESE42.31°2024-12-22 01:10:36.647Z353.574° N
6 mins2024-12-22 14:30:36.647Z352.994° N2024-12-22 14:32:36.647Z311.049° NW36.711°2024-12-22 14:36:36.647Z214.335° SW
|